Sturgeon Bay, WI

4:17 AM CDT on August 17, 2017 (GMT -0500)
Door County Cherryland

Weather History for KSUE - November, 2013

Change the Weather History Date:

Thursday, November 14, 2013

  Actual Average Record
Temperature  
Mean Temperature 38 °F -  
Max Temperature 44 °F 41 °F 64 °F (1953)
Min Temperature 33 °F 28 °F 9 °F (1986)
Degree Days  
Heating Degree Days 26    
Moisture  
Dew Point 23 °F    
Average Humidity 53    
Maximum Humidity 70    
Minimum Humidity 44    
Precipitation  
Precipitation 0.00 in - - ()
Sea Level Pressure  
Sea Level Pressure 29.86 in    
Wind  
Wind Speed 11 mph (SW)    
Max Wind Speed 17 mph    
Max Gust Speed 22 mph    
Visibility 10 miles    
Events      
Averages and records for this station are not official NWS values.
T = Trace of Precipitation, MM = Missing Value Source: NWS Daily Summary

Daily Weather History Graph

Daily Weather History Graph

Search for Another Location

Airport or City:

Trip Planner

Search our weather history database for the weather conditions in past years. The results will help you decide how hot, cold, wet, or windy it might be!

Date:

Astronomy

Nov. 14, 2013 Rise Set
Actual Time 6:45 AM CST 4:21 PM CST
Civil Twilight 6:14 AM CST 4:53 PM CST
Nautical Twilight 5:38 AM CST 5:28 PM CST
Astronomical Twilight 5:04 AM CST 6:03 PM CST
Moon 2:48 PM CST (11/14) 3:33 AM CST (11/14)
Length of Visible Light 10h 39m
Length of Day
9h 36m
Waxing Gibbous, 92% of the Moon is Illuminated
Nov 14
Waxing Gibbous
Nov 17
Full
Nov 25
Last Quarter
Dec 2
New
Dec 9
First Quarter

Hourly Weather History & Observations

Time (CST) Temp. Windchill Dew Point Humidity Pressure Visibility Wind Dir Wind Speed Gust Speed Precip Events Conditions
12:15 AM 35.6 °F 26.2 °F 15.8 °F 44% 29.92 in 10.0 mi SW 15.0 mph 20.7 mph N/A   Clear
12:35 AM 35.6 °F 28.0 °F 15.8 °F 44% 29.92 in 10.0 mi SW 10.4 mph 18.4 mph N/A   Clear
12:55 AM 35.6 °F 28.0 °F 15.8 °F 44% 29.91 in 10.0 mi SW 10.4 mph - N/A   Clear
1:15 AM 35.6 °F 27.1 °F 15.8 °F 44% 29.91 in 10.0 mi SW 12.7 mph - N/A   Clear
1:35 AM 35.6 °F 28.0 °F 15.8 °F 44% 29.91 in 10.0 mi SW 10.4 mph - N/A   Clear
1:55 AM 35.6 °F 27.1 °F 15.8 °F 44% 29.91 in 10.0 mi SW 12.7 mph - N/A   Clear
2:15 AM 35.6 °F 27.1 °F 15.8 °F 44% 29.90 in 10.0 mi SW 12.7 mph 17.3 mph N/A   Clear
2:35 AM 35.6 °F 28.0 °F 15.8 °F 44% 29.90 in 10.0 mi SW 10.4 mph - N/A   Clear
2:55 AM 35.6 °F 27.5 °F 15.8 °F 44% 29.90 in 10.0 mi SW 11.5 mph 16.1 mph N/A   Clear
3:15 AM 35.6 °F 27.5 °F 15.8 °F 44% 29.90 in 10.0 mi SW 11.5 mph - N/A   Clear
3:35 AM 35.6 °F 26.6 °F 15.8 °F 44% 29.89 in 10.0 mi SW 13.8 mph 18.4 mph N/A   Clear
3:55 AM 35.6 °F 28.0 °F 15.8 °F 44% 29.89 in 10.0 mi SW 10.4 mph - N/A   Clear
4:15 AM 33.8 °F 25.3 °F 17.6 °F 52% 29.88 in 10.0 mi SSW 11.5 mph - N/A   Clear
4:35 AM 33.8 °F 25.3 °F 17.6 °F 52% 29.88 in 10.0 mi SSW 11.5 mph - N/A   Clear
4:55 AM 33.8 °F 25.3 °F 17.6 °F 52% 29.89 in 10.0 mi SW 11.5 mph - N/A   Clear
5:15 AM 33.8 °F 26.4 °F 17.6 °F 52% 29.89 in 10.0 mi SW 9.2 mph - N/A   Clear
5:35 AM 33.8 °F 25.8 °F 17.6 °F 52% 29.88 in 10.0 mi SSW 10.4 mph - N/A   Clear
5:55 AM 33.8 °F 25.8 °F 17.6 °F 52% 29.87 in 10.0 mi SW 10.4 mph - N/A   Clear
6:15 AM 33.8 °F 25.8 °F 17.6 °F 52% 29.87 in 10.0 mi SW 10.4 mph - N/A   Clear
6:35 AM 33.8 °F 26.4 °F 17.6 °F 52% 29.87 in 10.0 mi SW 9.2 mph - N/A   Clear
6:55 AM 33.8 °F 25.8 °F 17.6 °F 52% 29.88 in 10.0 mi SW 10.4 mph - N/A   Clear
7:15 AM 33.8 °F 27.0 °F 19.4 °F 56% 29.89 in 10.0 mi SW 8.1 mph - N/A   Clear
7:35 AM 35.6 °F 29.2 °F 19.4 °F 52% 29.88 in 10.0 mi SW 8.1 mph - N/A   Clear
7:55 AM 35.6 °F 28.6 °F 19.4 °F 52% 29.87 in 10.0 mi SSW 9.2 mph - N/A   Clear
8:15 AM 35.6 °F 28.0 °F 19.4 °F 52% 29.87 in 10.0 mi SSW 10.4 mph - N/A   Clear
8:35 AM 35.6 °F 28.0 °F 19.4 °F 52% 29.88 in 10.0 mi SW 10.4 mph - N/A   Clear
8:55 AM 37.4 °F 28.9 °F 19.4 °F 48% 29.88 in 10.0 mi SW 13.8 mph 19.6 mph N/A   Clear
9:15 AM 37.4 °F 28.5 °F 19.4 °F 48% 29.87 in 10.0 mi SW 15.0 mph 19.6 mph N/A   Clear
9:35 AM 39.2 °F 30.2 °F 21.2 °F 49% 29.87 in 10.0 mi SW 17.3 mph 21.9 mph N/A   Clear
9:55 AM 39.2 °F 30.8 °F 21.2 °F 49% 29.87 in 10.0 mi WSW 15.0 mph 19.6 mph N/A   Clear
10:15 AM 39.2 °F 30.8 °F 21.2 °F 49% 29.87 in 10.0 mi SW 15.0 mph 19.6 mph N/A   Clear
10:35 AM 39.2 °F 31.2 °F 21.2 °F 49% 29.87 in 10.0 mi WSW 13.8 mph 19.6 mph N/A   Clear
10:55 AM 39.2 °F 32.0 °F 21.2 °F 49% 29.86 in 10.0 mi SW 11.5 mph - N/A   Clear
11:15 AM 41.0 °F 34.3 °F 21.2 °F 45% 29.85 in 10.0 mi SW 11.5 mph - N/A   Clear
11:35 AM 41.0 °F 33.9 °F 21.2 °F 45% 29.84 in 10.0 mi SSW 12.7 mph 19.6 mph N/A   Clear
11:55 AM 41.0 °F 34.3 °F 23.0 °F 49% 29.83 in 10.0 mi SW 11.5 mph - N/A   Clear
12:15 PM 42.8 °F 36.6 °F 24.8 °F 49% 29.83 in 10.0 mi SSW 11.5 mph - N/A   Clear
12:35 PM 42.8 °F 38.6 °F 24.8 °F 49% 29.83 in 10.0 mi SW 6.9 mph - N/A   Clear
12:55 PM 44.6 °F 39.7 °F 24.8 °F 46% 29.83 in 10.0 mi SSW 9.2 mph - N/A   Mostly Cloudy
1:15 PM 44.6 °F 39.7 °F 24.8 °F 46% 29.82 in 10.0 mi WSW 9.2 mph - N/A   Overcast
1:35 PM 44.6 °F 40.2 °F 26.6 °F 49% 29.82 in 10.0 mi SSW 8.1 mph - N/A   Mostly Cloudy
1:55 PM 44.6 °F 40.2 °F 26.6 °F 49% 29.82 in 10.0 mi SSW 8.1 mph - N/A   Overcast
2:15 PM 44.6 °F 38.8 °F 26.6 °F 49% 29.82 in 10.0 mi SSW 11.5 mph - N/A   Overcast
2:35 PM 44.6 °F 39.2 °F 24.8 °F 46% 29.82 in 10.0 mi SSW 10.4 mph - N/A   Overcast
2:55 PM 44.6 °F 38.8 °F 26.6 °F 49% 29.82 in 10.0 mi SSW 11.5 mph - N/A   Overcast
3:15 PM 42.8 °F 37.0 °F 24.8 °F 49% 29.83 in 10.0 mi SSW 10.4 mph - N/A   Overcast
3:35 PM 42.8 °F 37.0 °F 26.6 °F 53% 29.83 in 10.0 mi SSW 10.4 mph - N/A   Overcast
3:55 PM 42.8 °F 38.0 °F 26.6 °F 53% 29.84 in 10.0 mi SSW 8.1 mph - N/A   Mostly Cloudy
4:15 PM 42.8 °F 37.0 °F 24.8 °F 49% 29.84 in 10.0 mi SSW 10.4 mph - N/A   Overcast
4:35 PM 42.8 °F 38.6 °F 26.6 °F 53% 29.84 in 10.0 mi SSW 6.9 mph - N/A   Overcast
4:55 PM 41.0 °F 36.4 °F 28.4 °F 61% 29.84 in 10.0 mi SSW 6.9 mph - N/A   Overcast
5:15 PM 41.0 °F 36.4 °F 28.4 °F 61% 29.84 in 10.0 mi SSW 6.9 mph - N/A   Overcast
5:35 PM 39.2 °F 34.2 °F 28.4 °F 65% 29.84 in 10.0 mi SSW 6.9 mph - N/A   Overcast
5:55 PM 39.2 °F 34.2 °F 30.2 °F 70% 29.82 in 10.0 mi South 6.9 mph - N/A   Overcast
6:15 PM 39.2 °F 34.2 °F 30.2 °F 70% 29.82 in 10.0 mi SSW 6.9 mph - N/A   Overcast
6:35 PM 39.2 °F 33.0 °F 30.2 °F 70% 29.83 in 10.0 mi SSW 9.2 mph - N/A   Overcast
6:55 PM 39.2 °F 32.5 °F 30.2 °F 70% 29.83 in 10.0 mi SSW 10.4 mph - N/A   Overcast
7:15 PM 39.2 °F 32.0 °F 30.2 °F 70% 29.83 in 10.0 mi SSW 11.5 mph - N/A   Overcast
7:35 PM 39.2 °F 32.0 °F 30.2 °F 70% 29.83 in 10.0 mi SSW 11.5 mph - N/A   Overcast
7:55 PM 41.0 °F 33.9 °F 30.2 °F 65% 29.83 in 10.0 mi SSW 12.7 mph 16.1 mph N/A   Overcast
8:15 PM 41.0 °F 34.3 °F 30.2 °F 65% 29.84 in 10.0 mi SW 11.5 mph 16.1 mph N/A   Overcast
8:35 PM 41.0 °F 34.3 °F 28.4 °F 61% 29.84 in 10.0 mi SW 11.5 mph - N/A   Mostly Cloudy
8:55 PM 41.0 °F 33.5 °F 28.4 °F 61% 29.84 in 10.0 mi SW 13.8 mph 18.4 mph N/A   Partly Cloudy
9:15 PM 41.0 °F 33.5 °F 28.4 °F 61% 29.84 in 10.0 mi SW 13.8 mph - N/A   Clear
9:35 PM 41.0 °F 34.7 °F 28.4 °F 61% 29.84 in 10.0 mi SW 10.4 mph 17.3 mph N/A   Clear
9:55 PM 41.0 °F 35.2 °F 28.4 °F 61% 29.84 in 10.0 mi SW 9.2 mph - N/A   Clear
10:15 PM 39.2 °F 33.6 °F 28.4 °F 65% 29.84 in 10.0 mi SW 8.1 mph - N/A   Clear
10:35 PM 41.0 °F 35.8 °F 28.4 °F 61% 29.83 in 10.0 mi SW 8.1 mph - N/A   Clear
10:55 PM 39.2 °F 34.2 °F 28.4 °F 65% 29.83 in 10.0 mi SW 6.9 mph - N/A   Clear
11:15 PM 41.0 °F 36.4 °F 28.4 °F 61% 29.83 in 10.0 mi SW 6.9 mph - N/A   Mostly Cloudy
11:35 PM 41.0 °F 36.4 °F 28.4 °F 61% 29.83 in 10.0 mi SSW 6.9 mph - N/A   Overcast
11:55 PM 39.2 °F 35.9 °F 28.4 °F 65% 29.83 in 10.0 mi SSW 4.6 mph - N/A   Overcast